Theta_e
308 309 309 308 309 309 309 310 310 310 310 311 311 312 312 314 315 318 315 314 316 324 324 324 322 318 320 325 327 327 325 334 336 338 338 337 337 341 339 341 340 339 339 341 336
307 307 307 307 307 308 309 309 310 310 310 310 311 312 312 314 318 323 317 314 317 323 322 322 318 318 323 326 326 322 320 328 331 334 336 337 339 340 341 340 340 340 340 340 336
307 307 307 307 307 307 308 309 309 310 310 310 311 312 312 314 322 321 315 314 319 321 321 319 319 324 325 323 324 322 322 321 327 335 338 339 340 341 341 338 340 339 340 341 336
311 309 308 308 307 307 308 308 309 309 310 310 311 312 313 315 323 320 314 320 321 320 316 319 324 324 322 322 324 331 329 329 336 336 339 339 341 342 341 340 338 340 338 341 339
316 316 314 311 309 308 308 308 309 309 310 310 310 311 313 315 317 321 315 317 318 320 318 319 323 323 321 321 324 329 333 335 340 339 339 340 342 341 340 341 341 339 339 340 340
316 316 316 316 315 311 308 308 309 309 310 310 310 311 313 317 318 323 320 316 318 319 319 322 322 324 323 321 327 330 335 337 340 341 339 339 340 342 341 341 340 338 338 338 339
317 317 317 316 317 315 311 309 309 309 310 310 311 312 313 315 318 324 322 322 319 318 318 322 323 323 321 321 327 335 336 335 337 339 337 339 340 340 341 341 339 338 337 337 338
318 318 317 317 317 317 313 309 309 310 311 312 312 313 315 317 320 322 322 322 321 319 318 320 323 321 320 326 334 333 333 340 335 337 337 339 341 338 341 340 339 339 337 336 337
319 318 318 317 317 317 313 309 312 316 317 315 314 316 316 318 320 322 321 319 317 317 318 318 321 319 320 327 333 333 338 337 337 335 336 336 339 335 341 341 339 340 339 338 335
318 318 318 317 317 317 311 313 319 319 318 317 317 318 317 324 325 323 321 320 316 317 318 318 319 316 317 325 337 337 337 336 338 334 333 334 334 337 341 341 340 340 339 338 338
317 318 317 317 317 316 310 318 317 315 317 318 318 318 319 323 323 324 322 318 318 318 316 318 316 317 318 321 328 333 335 336 333 333 334 336 335 337 340 340 336 336 337 337 338
316 317 317 317 318 316 311 317 316 316 317 318 319 318 318 318 318 322 322 321 320 316 316 316 316 316 317 322 331 332 334 334 332 333 332 332 332 333 337 340 336 333 334 335 334
316 316 316 317 318 312 312 317 315 317 315 316 316 317 318 318 318 320 323 322 318 317 316 317 319 317 319 321 324 330 332 331 332 334 333 334 332 334 333 338 339 332 334 333 334
315 315 316 317 317 314 316 314 316 317 311 314 317 316 317 319 318 321 324 323 317 317 315 317 318 318 319 320 320 323 324 330 335 332 329 330 330 331 331 335 336 337 330 332 332
312 314 315 316 316 315 314 315 317 318 312 316 319 318 317 319 321 321 323 323 317 317 316 317 317 318 320 320 320 322 324 326 328 330 332 335 335 333 338 337 335 336 334 331 332
308 311 312 315 316 315 315 316 316 316 316 320 319 316 317 319 321 320 322 323 320 317 316 317 317 318 318 319 321 321 319 317 315 322 330 328 332 330 335 337 337 336 337 331 332
306 307 310 313 316 316 315 317 313 316 315 321 319 316 317 319 320 320 319 317 317 317 317 317 317 317 319 319 319 318 317 319 321 320 322 325 333 332 328 335 338 337 336 332 332
304 307 309 313 316 316 315 313 315 314 315 319 320 316 317 319 320 320 317 318 315 316 315 316 318 316 317 317 317 317 317 318 322 321 321 328 333 329 333 334 339 339 339 333 333
300 305 310 314 316 316 316 315 314 316 317 318 319 318 318 320 320 320 318 317 315 314 317 316 317 317 317 318 317 317 318 317 316 318 320 323 328 329 336 336 337 338 337 335 333
300 308 312 317 316 316 315 314 315 317 315 317 319 318 317 318 319 318 317 318 319 314 315 316 318 319 319 318 317 317 316 319 314 320 321 318 332 334 332 336 335 336 336 336 334
307 316 317 320 315 317 316 316 315 315 315 315 315 316 319 319 318 317 319 320 319 316 314 315 316 318 318 318 316 317 318 317 316 316 318 321 327 331 332 331 335 334 337 337 336
309 314 319 316 319 317 318 316 316 316 316 316 314 314 317 317 320 317 320 320 321 315 315 315 314 316 317 317 318 316 316 317 318 319 323 322 323 323 327 331 334 334 335 337 337
310 314 318 318 318 315 315 316 316 316 316 316 316 316 316 317 320 320 318 320 319 315 314 314 313 315 317 316 319 320 317 316 317 315 327 327 323 324 330 333 335 336 336 337 337
310 317 320 319 318 314 316 318 318 318 316 317 318 316 316 317 317 325 329 330 322 318 318 317 312 315 318 318 320 322 320 320 319 321 321 324 322 324 328 332 336 336 338 337 336
311 314 319 322 319 319 320 320 321 321 319 317 320 317 320 318 319 328 333 331 327 325 318 315 316 315 315 318 321 324 322 323 323 322 324 323 327 325 325 331 334 336 336 336 334
311 315 315 318 319 319 318 321 322 323 320 318 321 320 320 321 318 323 331 331 333 323 315 314 318 316 318 318 319 320 325 326 324 325 323 326 328 324 331 333 335 336 335 334 334
311 312 314 315 319 320 320 320 321 319 322 322 319 323 321 321 325 325 325 327 329 330 323 316 316 317 319 321 322 325 327 329 329 328 330 332 329 331 337 334 335 336 337 336 336
Wind_Speed
20 20 21 21 20 19 18 19 20 19 20 19 19 20 21 21 19 14 13 11 20 21 18 17 17 16 11 8 4 1 4 2 5 6 5 14 5 9 11 16 9 12 7 20 28
19 20 20 20 21 19 18 19 21 20 21 19 18 19 21 22 20 6 10 19 23 21 21 22 22 19 8 6 4 4 3 7 6 8 7 12 13 15 7 17 6 10 10 27 30
19 19 20 20 21 20 18 18 20 21 20 19 18 18 19 20 8 6 13 24 24 17 17 20 19 13 4 3 5 5 5 5 5 12 25 19 13 15 13 5 13 18 27 38 35
18 19 20 21 21 21 19 17 19 20 20 19 17 17 17 13 0 3 14 23 23 20 22 22 19 8 4 4 6 1 8 4 4 15 21 17 17 10 20 8 18 17 30 38 37
19 20 20 21 22 22 21 18 18 19 18 19 16 15 15 9 4 4 13 23 19 21 23 20 21 7 4 4 5 3 1 3 6 23 21 24 11 8 21 9 10 25 32 36 37
22 22 23 22 23 23 22 21 19 18 18 17 15 14 12 5 2 5 15 19 19 22 22 20 13 9 2 2 3 5 9 9 14 16 14 12 5 11 18 12 20 29 33 34 38
23 23 23 24 23 23 23 21 19 19 18 15 15 13 13 15 4 5 14 15 17 19 23 20 8 5 1 1 3 8 6 7 6 9 5 15 2 8 11 21 28 32 34 34 38
23 23 23 24 23 24 23 20 20 19 15 14 12 10 9 5 8 11 13 16 16 17 11 20 8 3 2 5 4 5 5 4 2 7 5 8 8 12 18 34 31 32 35 36 37
23 23 23 24 22 23 22 20 18 14 8 7 7 6 8 6 11 13 14 10 16 14 16 14 10 4 3 5 3 5 5 5 3 8 5 5 6 10 27 31 29 33 35 36 36
25 24 23 23 22 22 20 15 2 3 5 4 6 3 11 3 6 15 18 7 14 14 9 8 6 3 3 4 5 8 5 2 7 9 5 7 13 3 28 27 30 31 32 37 40
23 23 22 21 21 20 17 2 1 2 5 7 4 6 4 4 7 10 19 16 10 15 6 8 4 6 11 8 3 6 5 6 3 6 7 17 5 7 21 20 22 28 30 35 41
19 20 21 19 18 17 8 5 10 9 11 13 22 23 25 17 6 6 20 12 7 5 5 3 7 7 7 5 5 5 6 5 1 2 7 3 9 9 18 29 34 31 32 38 37
17 18 19 17 17 9 5 7 10 13 5 11 19 23 28 16 11 12 23 15 6 5 5 5 3 12 6 4 7 3 8 7 4 3 3 3 5 4 8 22 22 26 41 35 44
18 18 18 16 10 9 4 5 12 4 4 6 5 8 16 13 7 16 25 18 3 10 8 4 3 8 6 6 6 4 8 4 4 3 3 3 5 5 5 14 10 27 30 35 34
18 18 17 15 15 10 7 7 5 4 3 3 5 3 16 18 9 15 22 18 8 6 7 8 7 5 4 6 8 7 5 7 3 4 4 1 3 6 1 6 15 27 30 33 39
17 16 17 15 13 7 5 5 5 4 6 3 5 4 7 8 6 8 13 18 8 5 3 6 3 7 9 4 8 6 5 7 6 4 1 5 6 5 6 8 6 15 26 34 45
17 16 17 16 10 8 9 2 4 3 5 4 1 4 3 6 4 3 6 7 6 5 3 2 3 2 3 5 2 5 6 2 3 2 5 4 3 11 8 7 7 8 22 32 37
18 16 16 18 10 9 6 3 3 4 5 4 2 3 9 5 3 2 7 8 2 6 4 6 3 7 3 6 7 6 8 6 6 3 7 3 6 8 5 9 11 8 18 27 32
18 15 16 11 9 8 4 3 6 4 4 7 8 3 3 4 6 4 7 7 9 7 6 6 5 2 6 5 10 4 3 5 7 2 3 3 8 10 4 7 7 9 16 25 31
18 15 12 5 11 13 3 4 3 2 5 4 3 3 6 8 7 9 8 6 7 10 5 6 2 5 2 5 2 8 7 3 3 4 4 4 5 6 8 10 7 9 20 23 27
11 8 3 5 18 9 3 5 3 4 6 3 3 4 3 1 8 7 9 4 10 8 9 5 3 3 3 5 9 3 3 6 5 4 6 2 6 8 12 9 11 17 21 24 27
4 3 7 25 4 2 3 4 2 2 5 4 3 4 3 4 3 7 11 12 22 12 10 6 6 5 8 1 1 5 8 7 5 4 2 3 7 6 8 8 15 17 20 23 25
6 4 11 2 2 2 2 2 2 2 2 3 3 4 2 3 3 6 8 13 15 8 10 8 3 1 4 5 2 4 5 5 5 4 7 5 7 2 4 5 10 11 15 20 24
4 2 4 12 4 1 3 3 2 6 6 8 5 5 3 4 5 3 2 2 13 21 25 15 4 9 8 7 6 5 5 5 6 4 4 7 7 8 10 8 8 12 15 19 23
3 2 1 2 0 1 1 1 1 3 4 4 3 6 1 3 3 3 2 5 5 11 9 8 9 7 9 7 3 2 4 8 7 5 6 7 9 10 8 10 11 17 19 22 25
2 3 4 2 1 1 3 1 1 3 2 6 5 2 3 4 2 4 5 3 2 3 4 3 4 7 5 6 8 6 5 7 6 4 7 3 7 6 4 11 15 21 24 25 25
4 2 2 3 2 2 2 1 2 5 8 15 12 9 4 3 8 19 17 16 6 1 3 6 6 4 7 4 6 3 7 7 5 3 5 5 7 4 2 6 16 24 27 28 27
Wind_Direction
311 313 316 318 318 317 317 313 310 315 320 323 329 330 330 331 321 299 256 195 179 181 174 171 163 160 151 161 139 84 60 130 187 151 143 154 118 158 152 143 161 188 180 174 166
315 316 317 318 319 319 318 312 309 312 315 321 325 326 331 329 327 318 197 175 176 185 188 176 163 159 159 171 179 109 115 210 190 166 148 160 138 149 138 158 216 208 210 176 170
318 318 317 317 319 319 318 311 308 309 311 317 320 321 329 331 333 344 172 171 166 173 187 171 163 153 131 154 195 174 194 190 214 185 154 149 150 158 143 210 197 176 164 170 173
320 320 320 320 321 318 317 310 305 307 308 312 315 318 325 330 39 36 162 163 159 166 165 167 170 159 138 189 198 171 245 213 228 172 153 153 151 171 180 201 214 208 183 175 179
316 318 321 321 322 319 316 310 302 303 302 303 310 310 323 310 268 148 158 173 173 173 174 171 173 164 177 184 170 227 119 94 175 163 166 153 167 175 206 216 219 187 180 182 185
312 315 318 320 320 320 316 311 305 300 294 295 299 298 306 276 176 153 179 183 188 184 182 183 183 186 206 225 157 187 90 95 134 136 146 133 143 177 223 212 188 186 184 190 192
308 313 317 318 318 318 314 311 309 298 287 288 287 285 276 261 217 178 182 196 200 196 190 184 162 177 236 331 163 146 86 68 91 143 148 132 105 226 203 191 184 189 189 193 196
305 313 317 318 319 316 312 314 310 297 287 284 272 264 258 221 210 206 177 194 198 200 194 192 187 238 214 131 53 65 54 96 223 144 146 154 256 213 193 181 184 187 193 198 200
300 309 314 318 320 316 311 318 310 300 272 261 237 230 260 230 222 198 191 187 194 194 189 179 195 230 147 105 53 37 162 132 153 203 144 158 256 248 195 188 189 191 193 200 206
298 304 310 316 320 316 316 325 333 85 126 175 218 247 238 218 191 197 189 192 173 171 170 181 174 116 50 93 185 188 136 159 168 202 180 188 245 209 187 193 201 202 199 198 202
301 303 307 315 321 318 335 18 320 275 272 223 193 235 279 203 189 187 188 163 160 159 169 188 126 174 190 187 210 132 129 163 235 196 146 219 236 202 198 204 211 211 207 204 208
302 305 309 314 318 320 353 72 47 333 300 246 253 250 252 248 300 201 187 168 161 177 142 95 200 198 166 167 126 144 149 220 278 128 166 181 251 215 199 212 210 202 207 205 202
304 307 312 312 315 319 346 128 350 328 228 279 238 239 237 234 228 218 183 184 136 153 170 160 232 149 147 162 135 207 176 191 182 133 7 180 262 211 229 225 221 216 218 205 203
304 308 312 314 311 333 156 323 331 299 25 267 229 239 196 193 228 198 190 174 158 176 155 193 195 154 157 175 139 179 222 157 166 120 227 50 272 282 241 232 221 222 210 204 195
299 304 305 311 309 316 286 311 320 143 339 216 196 175 180 170 157 188 194 185 164 164 131 212 169 158 151 195 162 211 137 185 165 107 80 358 88 267 284 257 236 231 213 201 199
300 299 297 299 299 298 295 315 148 50 251 331 142 147 137 191 181 142 163 182 175 118 93 199 153 156 193 176 178 134 95 41 45 94 130 215 159 250 211 217 257 227 213 201 204
300 293 288 278 275 286 312 340 67 173 327 343 207 151 197 165 143 134 158 166 152 119 156 100 242 264 176 123 98 105 82 334 339 5 213 125 124 249 260 235 228 228 207 201 200
298 293 278 262 261 269 298 66 172 231 263 320 5 143 183 141 183 135 124 187 305 111 133 159 197 176 203 175 171 181 152 160 227 223 279 123 226 254 268 258 221 231 205 199 195
302 300 282 261 228 225 195 134 208 210 321 332 315 150 142 178 150 129 178 192 188 170 161 148 248 233 193 159 146 190 155 194 108 46 58 228 289 310 261 259 207 186 184 191 200
314 311 281 246 185 178 115 233 237 276 330 354 349 1 190 183 150 167 183 202 199 190 156 203 163 210 214 111 82 162 165 95 8 160 226 281 273 240 278 253 222 214 192 198 201
318 306 212 280 162 168 184 229 279 288 324 14 312 303 314 118 187 172 204 259 188 189 168 135 97 283 123 184 163 145 169 56 115 135 177 218 256 218 240 239 219 232 206 204 205
312 283 312 150 128 167 177 197 310 299 349 295 214 242 247 319 201 181 200 203 194 149 165 190 152 212 212 174 89 170 169 147 127 226 178 178 270 243 251 245 225 232 222 217 218
313 276 156 88 149 200 229 240 287 319 245 281 286 239 355 298 298 189 205 231 161 143 161 176 192 72 328 343 55 189 183 127 114 83 193 160 265 312 284 204 225 203 194 202 204
316 284 154 213 281 172 147 216 238 285 247 259 265 289 312 281 213 298 246 259 199 186 181 147 143 165 198 199 170 174 170 144 126 131 187 220 258 282 258 228 187 184 184 186 196
257 275 349 158 113 144 226 91 30 317 274 283 263 226 179 284 305 221 296 325 35 133 144 143 194 191 216 195 198 127 146 160 180 187 166 251 203 249 254 224 190 185 178 181 190
280 323 333 291 302 187 172 105 37 354 271 281 224 357 224 228 292 327 14 1 32 34 119 349 212 172 250 167 194 227 228 186 218 182 245 243 274 241 286 152 169 188 184 184 197
239 284 324 324 312 155 113 141 81 7 267 252 297 325 274 273 292 283 273 280 243 240 150 148 136 114 250 168 114 338 211 199 213 189 151 189 232 157 267 230 191 192 201 203 207